Regional Weather Roundup
Issued by NWS State College, PA

Home | Current Version | Previous Version | Graphics & Text | Print | Product List | Glossary On
Versions: 1 2 3 4 5 6 7 8 9 10 11 12 13 14 15 16 17 18 19 20 21 22 23 24 25 26 27 28 29 30 31 32 33 34 35 36 37 38 39 40 41 42 43 44 45 46 47 48 49 50
000
ASUS41 KCTP 290210
RWRCTP

REGIONAL WEATHER ROUNDUP
NATIONAL WEATHER SERVICE STATE COLLEGE PA
1000 PM EDT MON JUL 28 2014

Note: "fair" indicates few or no clouds below 12,000 feet with no
significant weather and/or obstructions to visibility.

* = STATION THAT DOES NOT REPORT PRECIPITATION /E.G. RAIN...SNOW...ETC/
    THUNDER OR FOG.

PAZ002>004-007>009-013>016-020>023-029>032-290300-
WESTERN PENNSYLVANIA

CITY           SKY/WX    TMP DP  RH WIND       PRES   REMARKS
ERIE           CLOUDY    62  50  64 NW10G16   29.92R
MEADVILLE      CLEAR     53  48  83 W7        29.94R
FRANKLIN*      CLEAR     54  46  76 W7        29.95R
NEW CASTLE       N/A     56  52  86 CALM      29.97R
BEAVER COUNTY  NOT AVBL
BUTLER*        PTCLDY    55  52  88 NW3       29.96R
PITTSBURGH INT PTCLDY    59  53  80 NW10      29.95R
PITTSBURGH     CLOUDY    59  54  83 NW5       29.93R
INDIANA*       CLOUDY    59  55  88 NW9G15    29.96R
LATROBE        CLOUDY    61  59  94 CALM      29.94
WASHINGTON CO* CLEAR     55  54  94 CALM      29.96R
$$

PAZ004>006-010>012-017>019-024>028-033>037-041-042-045-046-049>053-290300-
CENTRAL PENNSYLVANIA

CITY           SKY/WX    TMP DP  RH WIND       PRES   REMARKS
BRADFORD       CLOUDY    57  54  89 W5        29.89R
DUBOIS         CLOUDY    58  54  86 W13       29.90R
CLEARFIELD     CLOUDY    60  56  86 W5        29.89R
JOHNSTOWN      LGT RAIN  56  54  93 NW14      29.92R
ALTOONA        CLOUDY    63  56  78 NW10      29.89R
STATE COLLEGE  CLOUDY    62  55  78 NW5       29.86R
WILLIAMSPORT   CLOUDY    65  54  67 W10       29.80R
SELINSGROVE    CLOUDY    66  58  75 NE3       29.81R
FT INDIANTOWN  MOCLDY    67  59  74 CALM      29.79R
CAPITAL CITY   MOCLDY    65  62  90 W9        29.81R
HARRISBURG     MOCLDY    68  63  84 NW10      29.79R
YORK           CLOUDY    66  61  84 W8        29.81R
$$

PAZ038>040-043-044-047-048-054-055-060>062-067>071-290300-
EASTERN PENNSYLVANIA

CITY           SKY/WX    TMP DP  RH WIND       PRES   REMARKS
SCRANTON       CLOUDY    63  55  75 NW8G16    29.78R
MOUNT POCONO   CLOUDY    59  55  87 NW13G20   29.78R
ALLENTOWN      PTCLDY    67  56  67 NW12G21   29.75R
QUAKERTOWN*    PTCLDY    64  59  82 CALM      29.76R
READING        PTCLDY    68  58  70 NW10      29.77R
LANCASTER      CLOUDY    64  62  93 W7        29.79R
COATESVILLE    PTCLDY    64  64 100 NW10      29.79R
POTTSTOWN      PTCLDY    67  61  81 W5        29.77R
BLUE BELL      PTCLDY    68  61  77 W3        29.75R
DOYLESTOWN     CLEAR     65  60  84 NW5       29.74R
WILLOW GROVE   NOT AVBL
NORTH PHILA    MOCLDY    71  58  63 NW15G21   29.75R
PHILADELPHIA   MOCLDY    73  59  61 NW12      29.75R
$$



USA.gov is the U.S. government's official web portal to all federal, state and local government web resources and services.